Ocean City, MD

4:15 PM EDT on May 27, 2018 (GMT -0400)
Ocean City Municipal

Weather History for KOXB - January, 2014

Change the Weather History Date:

Wednesday, January 29, 2014

  Actual Average (KSBY) Record (KSBY)
Temperature  
Mean Temperature 11 °F -  
Max Temperature 21 °F 45 °F 72 °F (2013)
Min Temperature 0 °F 24 °F -6 °F (1966)
Degree Days  
Heating Degree Days 54    
Moisture  
Dew Point 5 °F    
Average Humidity 70    
Maximum Humidity 88    
Minimum Humidity 35    
Precipitation  
Precipitation 0.25 in - - ()
Sea Level Pressure  
Sea Level Pressure 30.24 in    
Wind  
Wind Speed 10 mph (NNW)    
Max Wind Speed 17 mph    
Max Gust Speed 23 mph    
Visibility 6 miles    
Events Snow    
Averages and records for this station are not official NWS values.
T = Trace of Precipitation, MM = Missing Value Source: NWS Daily Summary

Daily Weather History Graph

Daily Weather History Graph

Search for Another Location

Airport or City:

Astronomy

Jan. 29, 2014 Rise Set
Actual Time 7:08 AM EST 5:19 PM EST
Civil Twilight 6:39 AM EST 5:47 PM EST
Nautical Twilight 6:08 AM EST 6:19 PM EST
Astronomical Twilight 5:37 AM EST 6:50 PM EST
Moon 5:42 AM EST (1/29) 4:16 PM EST (1/29)
Length of Visible Light 11h 07m
Length of Day
10h 11m
Waning Crescent, 2% of the Moon is Illuminated
Jan 29
Waning Crescent
Jan 30
New
Feb 6
First Quarter
Feb 14
Full
Feb 22
Last Quarter

Hourly Weather History & Observations

Time (EST) Temp. Windchill Dew Point Humidity Pressure Visibility Wind Dir Wind Speed Gust Speed Precip Events Conditions
12:31 AM 14.0 °F 1.2 °F 10.0 °F 84% 30.21 in 0.8 mi NNW 10.4 mph - 0.01 in Snow Light Snow
12:40 AM 14.0 °F 2.0 °F 10.0 °F 84% 30.21 in 1.0 mi NNW 9.2 mph - 0.02 in Snow Light Snow
12:50 AM 14.0 °F 2.0 °F 10.4 °F 86% 30.20 in 1.5 mi NNW 9.2 mph - 0.06 in Snow Light Snow
12:53 AM 14.0 °F 1.2 °F 10.0 °F 84% 30.21 in 1.5 mi NNW 10.4 mph - 0.07 in Snow Light Snow
1:13 AM 14.0 °F 0.5 °F 9.0 °F 80% 30.20 in 3.0 mi NNW 11.5 mph - 0.01 in Snow Light Snow
1:27 AM 14.0 °F 1.2 °F 9.0 °F 80% 30.20 in 3.0 mi NNW 10.4 mph - 0.02 in Snow Light Snow
1:36 AM 14.0 °F 0.5 °F 9.0 °F 80% 30.20 in 2.0 mi NNW 11.5 mph - 0.03 in Snow Light Snow
1:53 AM 14.0 °F 0.5 °F 9.0 °F 80% 30.19 in 3.0 mi North 11.5 mph - 0.03 in Snow Light Snow
2:12 AM 14.0 °F 1.2 °F 9.0 °F 80% 30.19 in 2.5 mi North 10.4 mph 19.6 mph 0.00 in Snow Light Snow
2:36 AM 14.0 °F 1.2 °F 9.0 °F 80% 30.18 in 3.0 mi North 10.4 mph 18.4 mph 0.00 in Snow Light Snow
2:53 AM 14.0 °F 0.5 °F 9.0 °F 80% 30.19 in 2.5 mi North 11.5 mph - 0.00 in Snow Light Snow
3:15 AM 14.0 °F 2.9 °F 9.0 °F 80% 30.18 in 1.5 mi NNW 8.1 mph - 0.00 in Snow Light Snow
3:53 AM 12.9 °F 0.7 °F 9.0 °F 84% 30.19 in 1.2 mi NNW 9.2 mph - 0.09 in Snow Light Snow
4:25 AM 12.9 °F 0.7 °F 9.0 °F 84% 30.17 in 2.0 mi NNW 9.2 mph - 0.02 in Snow Light Snow
4:36 AM 12.9 °F 0.7 °F 9.0 °F 84% 30.17 in 2.5 mi NNW 9.2 mph - 0.02 in Snow Light Snow
4:51 AM 12.2 °F -1.8 °F 8.6 °F 85% 30.18 in 3.0 mi NNW 11.5 mph - 0.03 in Snow Light Snow
4:53 AM 12.9 °F -0.2 °F 8.1 °F 81% 30.18 in 3.0 mi NNW 10.4 mph - 0.03 in Snow Light Snow
5:53 AM 12.9 °F -0.2 °F 9.0 °F 84% 30.19 in 4.0 mi NNW 10.4 mph - 0.02 in Snow Light Snow
6:53 AM 12.9 °F -1.6 °F 8.1 °F 81% 30.20 in 2.5 mi NNW 12.7 mph - 0.01 in Snow Light Snow
7:13 AM 12.9 °F -0.9 °F 8.1 °F 81% 30.20 in 3.0 mi NNW 11.5 mph - 0.00 in Snow Light Snow
7:53 AM 12.9 °F -0.9 °F 8.1 °F 81% 30.22 in 7.0 mi NNW 11.5 mph - 0.00 in Snow Light Snow
8:53 AM 14.0 °F -0.8 °F 5.0 °F 67% 30.25 in 10.0 mi NNW 13.8 mph - 0.00 in   Overcast
9:53 AM 16.0 °F 0.1 °F 1.9 °F 54% 30.26 in 10.0 mi NNW 17.3 mph 23.0 mph N/A   Partly Cloudy
10:53 AM 19.0 °F 5.0 °F -0.9 °F 42% 30.29 in 10.0 mi NNW 15.0 mph 23.0 mph N/A   Clear
11:53 AM 17.1 °F 3.0 °F -4.0 °F 39% 30.27 in 10.0 mi NW 13.8 mph 20.7 mph N/A   Clear
12:53 PM 19.0 °F 9.0 °F -2.0 °F 40% 30.26 in 10.0 mi NW 8.1 mph - N/A   Clear
1:53 PM 21.0 °F 8.6 °F -2.9 °F 35% 30.25 in 10.0 mi NW 12.7 mph - N/A   Clear
2:53 PM 19.9 °F 10.1 °F -2.0 °F 38% 30.25 in 10.0 mi NW 8.1 mph - N/A   Clear
3:53 PM 19.0 °F 7.5 °F -2.9 °F 38% 30.27 in 10.0 mi WNW 10.4 mph - N/A   Clear
4:53 PM 18.0 °F 12.7 °F -2.0 °F 41% 30.28 in 10.0 mi WNW 3.5 mph - N/A   Clear
5:53 PM 15.1 °F 7.7 °F -0.9 °F 49% 30.30 in 10.0 mi West 4.6 mph - N/A   Clear
6:53 PM 15.1 °F 9.4 °F -2.0 °F 47% 30.33 in 10.0 mi WSW 3.5 mph - N/A   Clear
7:53 PM 9.0 °F 2.4 °F -0.9 °F 64% 30.35 in 10.0 mi WSW 3.5 mph - N/A   Clear
8:53 PM 5.0 °F - -0.9 °F 76% 30.35 in 10.0 mi Calm Calm - N/A   Clear
9:53 PM 6.1 °F - -0.0 °F 76% 30.36 in 10.0 mi Calm Calm - N/A   Clear
10:53 PM 1.9 °F - -2.0 °F 83% 30.38 in 10.0 mi Calm Calm - N/A   Clear
11:53 PM -0.0 °F -7.9 °F -2.9 °F 88% 30.39 in 10.0 mi NNW 3.5 mph - N/A   Clear